EST,Max TemperatureF,Mean TemperatureF,Min TemperatureF,Max Dew PointF,MeanDew PointF,Min DewpointF,Max Humidity, Mean Humidity, Min Humidity, Max Sea Level PressureIn, Mean Sea Level PressureIn, Min Sea Level PressureIn, Max VisibilityMiles, Mean VisibilityMiles, Min VisibilityMiles, Max Wind SpeedMPH, Mean Wind SpeedMPH, Max Gust SpeedMPH,PrecipitationIn, CloudCover, Events, WindDirDegrees
2012-12-1,57,47,37,48,41,36,93,83,67,30.24,30.15,30.03,10,7,4,16,5,23,0.00,5,,114
2012-12-2,59,55,51,55,53,46,100,90,67,30.10,29.99,29.93,10,6,2,17,11,24,0.00,8,Rain,227
2012-12-3,64,55,46,61,54,46,100,94,77,30.13,30.04,29.94,10,4,0,17,4,23,0.00,7,Fog-Rain,155
2012-12-4,64,52,39,55,48,36,94,81,72,30.11,29.99,29.92,10,10,4,18,12,26,0.00,4,Rain,243
2012-12-5,41,36,30,36,26,21,93,70,49,30.39,30.31,30.12,10,10,10,14,7,21,0.00,1,,344
2012-12-6,39,34,30,36,30,27,93,78,61,30.34,30.15,29.96,10,10,7,12,4,20,0.00,2,,153
2012-12-7,44,40,35,43,39,34,100,93,87,29.96,29.92,29.86,10,6,2,5,1,,0.00,7,Rain,149
2012-12-8,42,40,37,43,39,32,100,94,81,30.15,29.92,29.80,10,6,2,13,3,17,0.00,8,Rain,12
2012-12-9,42,40,37,43,37,30,100,90,75,30.15,29.95,29.63,10,7,0,17,7,25,0.00,8,Fog-Rain,79
2012-12-10,42,38,33,43,36,28,100,84,75,29.84,29.68,29.60,10,8,0,15,6,20,0.00,8,Fog-Rain,288
2012-12-11,37,32,28,30,26,21,93,79,60,30.16,30.01,29.85,10,10,2,18,5,22,0.00,5,Snow,234
2012-12-12,42,34,26,28,26,25,93,76,53,30.37,30.30,30.17,10,10,7,10,7,16,0.00,0,,217
2012-12-13,46,36,26,28,26,25,93,72,46,30.37,30.30,30.17,10,10,7,10,5,,0.00,0,,196
2012-12-14,46,37,28,36,30,27,100,77,53,30.25,30.20,30.16,10,9,4,8,5,,0.00,0,,209
2012-12-15,46,38,30,43,35,30,100,84,57,30.15,29.96,29.69,10,7,0,14,4,21,0.00,5,Fog-Rain,127
2012-12-16,57,52,46,52,47,41,100,86,72,29.68,29.64,29.59,10,8,2,20,9,28,0.00,8,Rain,224
2012-12-17,44,42,41,39,38,36,87,83,76,29.73,29.67,29.59,10,9,5,12,4,17,0.00,8,,278
2012-12-18,42,38,35,37,34,30,100,85,61,29.77,29.71,29.61,10,7,3,12,6,,0.00,6,Rain,263
2012-12-19,42,40,37,37,36,34,100,89,76,30.11,29.97,29.72,10,6,2,8,2,,0.00,8,,309
2012-12-20,50,42,35,46,39,30,100,87,61,30.06,29.52,29.16,10,8,2,30,14,38,0.00,7,Rain-Snow,129
2012-12-21,35,34,32,34,29,23,100,81,65,29.86,29.45,29.17,10,8,1,32,15,43,0.00,8,Snow,296
2012-12-22,37,32,26,28,24,21,93,73,60,30.08,30.01,29.87,10,10,10,21,15,36,0.00,4,,280
2012-12-23,37,29,21,27,24,19,100,83,60,30.02,29.95,29.89,10,9,5,9,4,,0.00,1,,292
2012-12-24,35,28,21,30,27,21,100,86,75,29.99,29.90,29.79,10,9,2,12,5,16,0.00,6,Snow,40
2012-12-25,33,28,24,28,26,21,100,82,70,30.27,30.18,29.97,10,10,10,10,5,,0.00,6,,2
2012-12-26,33,30,26,28,26,25,100,85,70,30.23,29.93,29.78,10,6,0,24,13,34,0.00,8,Snow,30
2012-12-27,32,23,14,28,24,12,100,88,74,30.14,30.02,29.83,10,8,0,14,8,18,0.00,4,Fog-Snow,308
2012-12-28,32,21,10,27,20,10,100,91,80,30.17,30.07,29.91,10,8,2,7,1,,0.00,3,Snow,88
2012-12-29,32,26,21,28,26,19,100,93,86,30.05,29.86,29.78,10,5,0,9,6,,0.00,7,Snow,338
2012-12-30,30,24,17,28,20,16,100,87,74,30.31,30.23,30.05,10,8,3,17,8,22,0.00,5,Snow,233
2012-12-31,35,28,21,30,25,18,87,79,70,30.21,30.02,29.93,10,10,5,18,12,25,0.00,3,Snow,232